Погода Великие Луки

Погода Великие Луки : погода сейчас, прогноз погоды и архив. Всё, что Вы хотите узнать о погоде Великие Луки!

Поиск расширенной информации на нашем сайте:

Другие новости

Новости СМИ2

Главная страница сайта

Новости сайта

03.07.2017

Напоминаем, что на нашем специализированном сайте Метеоцентр.Азия вы можете получить высокодетализированные автоматические прогнозы погоды по пунктам России, СНГ и мира в авиационном формате (включающие направление и скорость ветра, видимость, явления погоды, количество и форму облачности, нижнюю и верхнюю границу облачности).


Погода Великие Луки - сегодня

Время (UTC), дата Ветер
(°,м/с) 
Видим.   Явления Облачность Т
(°С)
Тd
(°С)
f(%) Тe
(°С)
Pmin
(гПа)
dP
(гПа)
Po
(мм)
O2
(г/м3)
Тmin Tmax R s Состояние
почвы
09 20.01.18 110 (В) 4000 м  слаб. ливневой снег  10/10 600 м кучево-дожд. 
[Cb cap]
-4.9 -6.4 89 -4  1007.8  0.4  746  307           
12 20.01.18 090 (В) 10 км  {ливн. осадки}  9/9 1000 м 
[Sc]
-4.4 -6.7 84 -6  1007.6  -0.2  746  306           
15 20.01.18 тихо ()   4000 м  слаб. ливневой снег  10/10 600 м кучево-дожд. 
[Cb cap]
-5.7 -6.8 92 -6  1007.9  0.3  746  308      0.4     
18 20.01.18 тихо ()   4000 м  слаб. ливневой снег  10/10 600 м кучево-дожд. 
[Cb cap]
-6 -6.7 95 -6  1008.3  0.3  746  308    -4.3  0.6     
21 20.01.18 тихо ()   4000 м  слаб. ливневой снег  10/10 600 м кучево-дожд. 
[Cb cap]
-7.6 -7.6 100 -8  1008.5  0.2  746  310           
00 21.01.18 тихо ()   4000 м  слаб. ливневой снег  10/10 600 м кучево-дожд. 
[Cb cap]
-7 -7.1 99 -7  1008.6  0.1  746  309           
03 21.01.18 тихо ()   10 км  {ливн. осадки}  10/10 600 м кучево-дожд. 
[Cb cap]
-7.2 -7.6 97 -7  1009  0.4  747  310  -7.6    0.6     
06 21.01.18 тихо ()   10 км  {ливн. осадки}  10/10 600 м кучево-дожд. 
[Cb cap]
-7.3 -7.6 98 -7  1010.2  1.1  747  310  -7.6    0.4  равномерный
сухой снег
100% 
09 21.01.18 130 (ЮВ) 10 км  {ливн. осадки}  10/10 600 м кучево-дожд. 
[Cb cap]
-4.9 -7 85 -6  1010.6  0.9  748  308           
12 21.01.18 330 (СЗ) 10 км  {ливн. осадки}  9/9 1000 м 
[Sc]
-5.5 -6.9 90 -5  1011.7  0.8  749  309           
15 21.01.18 тихо ()   10 км    10/10 600 м кучево-дожд. 
[Cb cap]
-8 -8.4 97 -8  1013.5  1.5  750  312      0.0     
18 21.01.18 230 (ЮЗ) 10 км  {ливн. осадки}  10/10 600 м кучево-дожд. 
[Cb cap]
-5.9 -6.4 96 -6  1013.6  0.3  750  310    -4.9  0.2     
21 21.01.18 290 (З) 10 км    5/5 1000 м 
[Sc]
-6.8 -8.7 86 -6  1014.4  0.7  751  311           
00 22.01.18 310 (СЗ) 10 км    10/10 600 м кучево-дожд. 
[Cb cap]
-6.9 -9.4 82 -7  1015.2  0.7  751  311           
03 22.01.18 230 (ЮЗ) 4000 м  слаб. ливневой снег  10/10 600 м кучево-дожд. 
[Cb cap]
-7.1 -8 93 -7  1015.7  0.5  752  312  -8.3    0.2     
06 22.01.18 260 (З) 4000 м  слаб. ливневой снег  10/10 600 м кучево-дожд. 
[Cb cap]
-6.4 -7.2 94 -8  1016.1  0.4  752  311  -7.3    0.2  равномерный
сухой снег
100% 
09 22.01.18 250 (З) 10 км  {ливн. осадки}  10/4 600 м средняя, верхняя 
[Sc|Ac trans|Ci sp]
-6.3 -8.2 86 -9  1017.2  1.1  753  311           
12 22.01.18 250 (З) 10 км  {ливн. осадки}  10/10 1000 м 
[Sc]
-5.5 -7.1 88 -8  1018  0.8  753  311           
15 22.01.18 210 (ЮЗ) 10 км    6/6 1500 м 
[Sc]
-5.6 -6.7 92 -5  1018.8  0.8  754  311      0.2     
18 22.01.18 210 (ЮЗ) 10 км    4/4 1000 м 
[Sc]
-7.5 -8.1 95 -9  1019.5  0.6  754  313    -4.7  0.0     
21 22.01.18 210 (ЮЗ) 10 км    10/10 1000 м 
[Sc]
-7.4 -8 95 -10  1020.4  0.9  755  314           
00 23.01.18 190 (Ю) 10 км    10/10 1000 м 
[Sc]
-7.8 -8.5 95 -9  1021.1  0.6  755  314           
03 23.01.18 210 (ЮЗ) 10 км    10/10 600 м кучево-дожд. 
[Cb cap]
-7.5 -8 96 -9  1022.1  756  314  -8.1         
06 23.01.18 210 (ЮЗ) 10 км  {ливн. осадки}  10/10 600 м 
[Sc]
-7.7 -8.9 91 -9  1023.5  1.5  757  315  -8.1    0.6  равномерный
сухой снег
100% 
09 23.01.18 220 (ЮЗ) 4000 м  слаб. ливневой снег  10/10 600 м кучево-дожд. 
[Cb cap]
-6.8 -8.6 87 -6  1025.2  1.7  759  314           
Время (UTC), дата Ветер
(°,м/с) 
Видим.   Явления Облачность Т
(°С)
Тd
(°С)
f(%) Тe
(°С)
Pmin
(гПа)
dP
(гПа)
Po
(мм)
O2
(г/м3)
Тmin Tmax R s Состояние
почвы

Для получения пояснительной информации подведите курсор к названию столбца.

ПОГОДА Великие Луки - архив

Всё, что Вы хотите узнать о погоде Великие Луки - удобно и подробно!

Выберите нужную дату (начиная с 1 января 2015* года) и нажмите кнопку "Найти".
Будут отображены архивные сводки погоды по пункту Великие Луки, начиная с указанной даты.


Отображать данные в формате CSV (для использования в таблицах Excel)


Внимание! Наш архив погоды предназначен исключительно для личного некоммерческого использования в познавательных целях. Если Вам необходимы официальные справки о состоянии погоды (для производственных, юридических, коммерческих и т.п. целей), обращайтесь в органы Росгидромета.

*Примечание: данная дата относится к архиву по метеостанциям СССР (Россия, СНГ, Балтия).
Архив по метеостанциям Зарубежной Европы и Азии (кроме Китая) хранится 10 дней, по другим регионам земного шара (Китай, Африка, Америка, Австралия, Океания) - 1 день.

Великие Луки - район местоположения метеостанции


Название, широта, долгота, высота метеостанции:
Великие Луки 56.3°ш. 30.6°д. 99 м над ур. моря [Российская Федерация]

Дополнительная информация

В oтличие oт бoльшинства пoгoдных сайтoв мы публикуем пoдрoбную метеoинфoрмацию в детальнoм прoфессиoнальнoм фoрмате.

Характеристики температуры и влажнoсти вoздуха измеряются на высoте 2 м в тени вдали oт зданий и деревьев.
Скoрoсть ветра измеряется на высoте 10 м (на урoвне рoста челoвека скoрoсть ветра ниже в 1.5-2 раза). Если метеoстанция нахoдится в гoрoде или в лесу, тo скoрoсть ветра занижена на 2-4 м/с пo сравнению с oткрытым местoм. Скoрoсть ветра над акватoриями крупных рек и oзёр, а также на вершинах хoлмoв на 2-5 м/с выше, чем в oбычных услoвиях.
Атмoсфернoе давление в разных тoчках местнoсти мoжет значительнo oтличаться oт давления на метеoстанции, в зависимoсти oт услoвий рельефа (при пoдъёме на 10 м давление пoнижается примернo на 1 мм рт.ст.).